AirNav   Everest Fuels
 
 1574 users online  

WN40 Coupeville Airpark
Coupeville, Washington, USA

GOING TO COUPEVILLE?


FAA INFORMATION EFFECTIVE 16 JUNE 2022

Location

FAA Identifier: WN40
Lat/Long: 48-11-25.3510N 122-38-34.5970W
48-11.422517N 122-38.576617W
48.1903753,-122.6429436
(estimated)
Elevation: 200 ft. / 61 m (estimated)
Variation: 21E (1985)
From city: 3 miles S of COUPEVILLE, WA
Time zone: UTC -7 (UTC -8 during Standard Time)
Zip code: 98239

Airport Operations

Airport use: CLOSED INDEFINITELY
Activation date: 11/1983
Control tower: no
ARTCC: SEATTLE CENTER
FSS: SEATTLE FLIGHT SERVICE STATION
Attendance: UNATNDD
Wind indicator: yes
Segmented circle: no

Airport Communications

WX AWOS-3 at OKH (4 nm N): 132.775 (360-675-8431)
WX ASOS at NUW (10 nm N): PHONE 360-257-8813
WX AWOS-3P at 0S9 (11 nm SW): 119.025 (360-379-1199)
WX AWOS-3 at BVS (19 nm NE): 121.125 (360-757-7767)
WX AWOS-3PT at AWO (19 nm E): 135.625 (360-435-8045)

Airport Services

Runway Information

Runway 6/24

Dimensions: 2500 x 80 ft. / 762 x 24 m
Surface: turf
RUNWAY 6  RUNWAY 24
Traffic pattern: leftleft
Obstructions: 100 ft. trees, 400 ft. from runwaynone

Airport Ownership and Management from official FAA records

Ownership: Privately-owned
Owner: ERNEST H. YOUDERIAN
585W-500SO
COUPEVILLE, WA 98239
Phone 206-678-4147
Manager: ERNEST H. YOUDERIAN
585W-500SO
COUPEVILLE, WA 98239
Phone 206-678-4147

Airport Operational Statistics

Aircraft based on the field: 7
Single engine airplanes: 7
    

Additional Remarks

CTC WHIDBEY NAS ON 127.9 OR APCH CTL 118.2 OR ATIS ON 134.15. FOR ARPT TFC AREA HOT OR COLD JET TFC ON DLNG & TKOF.
AIRPARK APPROVED FOR PERSONAL USE ONLY.
FOR CD CTC SEATTLE ARTCC AT 253-351-3694.
(ARPT STATUS) ARPT CLSD INDEFLY.

Instrument Procedures

There are no published instrument procedures at WN40.

Some nearby airports with instrument procedures:

KOKH - AJ Eisenberg Airport (4 nm N)
KNUW - Whidbey Island Naval Air Station (Ault Field) (10 nm N)
0S9 - Jefferson County International Airport (11 nm SW)
KBVS - Skagit Regional Airport (19 nm NE)
KAWO - Arlington Municipal Airport (19 nm E)
 
Loc | Ops | Rwys | IFR | FBO | Links
Com | Nav | Svcs | Stats | Notes
Area around WN40 (Coupeville Airpark)
 
Road maps at: MapQuest Bing Google
 
Aerial photo
No photo
 
Sectional chart

 
Airport distance calculator
Flying to Coupeville Airpark? Find the distance to fly.

From to WN40

Sunrise and sunset
Times for 29-Jun-2022
 Local
(UTC-7)
 Zulu
(UTC)
Morning civil twilight04:3311:33
Sunrise05:1412:14
Sunset21:1404:14
Evening civil twilight21:5504:55

Current date and time
Zulu (UTC)  29-Jun-2022 16:06:32
Local (UTC-7)  29-Jun-2022 09:06:32
 
METAR
KNUW 
10nm N 
291456Z 16006KT 10SM SCT010 BKN030 OVC050 14/13 A3017 RMK SLP217 T01440128 53011
K0S9 
11nm SW 
291555Z AUTO 11005KT 10SM BKN017 OVC025 14/12 A3014 RMK AO2 PWINO
KBVS 
19nm NE 
291555Z AUTO 17003KT 10SM OVC032 15/13 A3016 RMK A01
KAWO 
19nm E 
291556Z AUTO 17009KT 10SM FEW025 BKN032 OVC050 16/11 A3017 RMK AO2 SLP222 T01560106
TAF
KNUW 
10nm N 
2907/3007 20010KT 9999 VCSH FEW005 SCT025 OVC040 QNH3003INS TEMPO 2910/2915 16008KT 1600 -DZ BR BKN005 OVC020 FM291500 18008KT 9999 VCSH SCT005 BKN025 OVC040 QNH3010INS BECMG 2923/3000 22008KT 9999 SCT020 BKN060 OVC100 651009 QNH3013INS FM300400 VRB06KT 8000 BR BKN020 OVC050 641009 QNH3016INS T11/2912Z T17/2923Z FS30170
NOTAMs
Click for the latest NOTAMs
NOTAMs are issued by the DoD/FAA and will open in a separate window not controlled by AirNav.

 

 
 

Would you like to see your business listed on this page?

 If your business provides an interesting product or service to pilots, flight crews, aircraft, or users of the Coupeville Airpark, you should consider listing it here.  To start the listing process, click on the button below
 
Add a business
 

Other Pages about Coupeville Airpark

Update a link
 
Copyright © AirNav, LLC. All rights reserved. Privacy Policy  Contact